Weather in Nizhneye Kotnyrevo

Russia / Udmurt Republic     56°06′28″N   52°24′11″E
temp.,
°C
wind,
m/s
gust,
m/s
humid.,
%
clouds,
%
prec.,
mm/h
press.,
hPa
HPBL,
m
25 may, wed
wed2501:00+7e2485100 0.0 100796
04:00+6wnw118416 0.0 100610
07:00+8wnw347814 0.0 1006296
10:00+11wnw226386 0.0 10061043
13:00+8wnw6583100 0.0 1007583
16:00+6w4788100 1.3 1009718
19:00+8w367569 0.2 1009852
22:00+4wsw348627 0.2 101065
26 may, thu
thu2601:00+3sw388773 0.0 1012174
04:00+2sw4119513 0.0 1013251
07:00+5wsw588422 0.0 1014534
10:00+9wsw676232 0.0 10141291
13:00+10sw576294 0.1 10151387
16:00+11sw486086 0.1 10141350
19:00+10sw486798 0.2 1013389
22:00+7ssw34795 0.3 101360
27 may, fri
fri2701:00+7s3983100 0.0 1012246
04:00+5s339194 0.0 101155
07:00+9s41077100 0.0 1010388
10:00+11s51171100 0.0 1009814
13:00+12sse71272100 0.3 10081390
16:00+12sse71376100 0.7 1007905
19:00+13s7138481 0.8 1006796
22:00+11sse613935 1.9 1006393
28 may, sat
sat2801:00+10s5119451 0.2 1007343
04:00+9s499755 0.2 1008271
07:00+11ssw5890100 0.0 1010617
10:00+12sw578681 0.1 1011644
13:00+14ssw6876100 0.1 1012966
16:00+19ssw695974 0.1 10121771
19:00+17ssw6117036 0.0 1012700
22:00+15ssw6147294 0.0 1013551
29 may, sun
sun2901:00+14wsw41281100 0.4 1014506
04:00+13ssw379597 1.3 1015270
07:00+15sw478997 0.0 1016552
10:00+18sw5767100 0.1 10171172
13:00+21sw585414 0.0 10171784
16:00+15w3684100 0.8 1017254
19:00+14wsw368298 0.0 1018235
22:00+12w2588100 0.0 1019154